Location: Aufkirchen
(47.9603°N, 11.3653°E)
Time: 10:33:28
(UTC+02:00)

Altair - Pass Details

Date: 29 July 2021
Orbit: 1501 x 1682 km, 47.2° (Epoch: 18 September)

Event Time Altitude Azimuth Distance (km) Brightness Sun altitude
Exits shadow 03:14:43 25° 194° (SSW) 2,717 8.2 -18.6°
Maximum altitude 03:19:32 42° 143° (SE) 2,058 8.0 -18.2°
Drops below altitude 10° 03:27:56 10° 77° (ENE) 3,659 10.1 -17.5°
Sets 03:31:08 0° 70° (ENE) 4,638 10.9 -17.2°
